www.pogodaiklimat.ru

Погода и климат >> Архив погоды >> Россия >> Сахалинская область >> Северо-Курильск


АРХИВ ПОГОДЫ в Северо-Курильске

Время (UTC), дата Ветер
(напр.,м/с)
 
Видим.   Явления Облачность Т
(С)
Тd
(С)
f
(%)
Тe
(С)
Тes
(С)
Комфортность P
(гПа)
Po
(гПа)
Тmin
(С)
Tmax
(С)
R
(мм)
R24
(мм)
S
(см)
09 19.04 ЮВ 5-8
{7}
35 км 9/9 600 м
[Sc]
+1.5 -1.7 79 -4 -4 по сезону 1026.9 1023.8 +1.5 0.3
12 19.04 ЮВ 4-7
{8}
4000 м 10/10 600 м
[Sc]
+1.3 -1.7 80 -4 -4 по сезону 1027.0 1023.9
15 19.04 ЮВ 5-8
{9}
4000 м 9/9 1000 м
[Sc]
+1.7 -3.7 67 -4 -4 по сезону 1026.9 1023.9
18 19.04 ЮВ 5-8
{9}
4000 м 10/10 600 м
[Sc]
+1.4 -2.7 74 -4 -4 по сезону 1027.4 1024.3
21 19.04 ЮВ 5-7
{10}
35 км 10/10 600 м
[Sc]
+1.7 -4.2 65 -4 -4 по сезону 1028.4 1025.3 +1.2 0
00 20.04 ЮВ 6-7
{8}
35 км 10/10 600 м
[Sc]
+1.6 -3.4 69 -4 -4 по сезону 1028.4 1025.3
03 20.04 ЮВ 6-8
{9}
30 км 10/10 1000 м
[Sc]
+2.2 -4.0 64 -3 -3 по сезону 1028.1 1025.0
06 20.04 ЮВ 6-8
{10}
35 км 10/3 1000 м
[Cu hum Ac As]
+1.5 -2.4 75 -5 -4 по сезону 1028.0 1024.9
09 20.04 ЮВ 6-8
{10}
28 км 10/4 600 м
[Sc Ac As]
+1.3 -2.3 77 -5 -5 по сезону 1028.1 1025.0 +2.3
12 20.04 ЮВ 4-7
{9}
4000 м 10/10 600 м
[Sc]
+1.3 -2.2 77 -4 -4 по сезону 1027.7 1024.6
15 20.04 ЮВ 5-7
{8}
4000 м 10/10 600 м
[Sc]
+1.2 -2.6 76 -4 -4 по сезону 1027.0 1023.9
18 20.04 ЮВ 5-7
{8}
4000 м 10/6 600 м
[Sc Ac As]
+1.5 -3.4 70 -4 -4 по сезону 1026.3 1023.3
21 20.04 ЮВ 4-6
{8}
35 км 10/4 600 м
[Cu Sc Ac As]
+1.6 -3.0 71 -3 -3 по сезону 1026.4 1023.3 +1.0 0
00 21.04 ЮВ 4-6
{7}
40 км 10/3 600 м
[Cu Sc Ac As]
+1.4 -1.9 79 -4 -2 по сезону 1026.1 1023.0
03 21.04 ЮВ 6-8
{8}
30 км 10/6 600 м
[Sc Ac As]
+1.5 -1.4 81 -5 -4 по сезону 1025.0 1021.9
06 21.04 ЮВ 5-7
{9}
26 км 10/8 600 м
[Sc Ac As]
+1.7 -1.5 79 -4 -4 по сезону 1024.6 1021.5
09 21.04 ЮВ 5-7
{9}
22 км 10/9 600 м
[Sc Ac As]
+1.3 -1.5 82 -4 -4 по сезону 1024.9 1021.9 +1.9
12 21.04 ЮВ 5-7
{9}
4000 м 10/8 600 м
[Sc Ac As]
+1.4 -1.2 83 -4 -4 по сезону 1024.8 1021.8
15 21.04 ЮВ 6-9
{10}
4000 м 9/9 600 м
[Sc]
+1.7 -1.1 82 -4 -4 по сезону 1024.4 1021.3
18 21.04 ЮВ 7-9
{11}
4000 м 9/8 600 м
[Sc Ci fib]
+1.5 -0.2 88 -5 -5 по сезону 1023.3 1020.3
21 21.04 ЮВ 8-10
{10}
21 км 8/8 300 м
[St]
+2.1 -1.0 80 -5 -5 по сезону 1022.7 1019.7 +1.3 0
00 22.04 В 7-9
{12}
18 км 9/5 300 м
[St Ac trans Cc]
+2.5 -0.7 79 -4 -3 по сезону 1022.6 1019.6
03 22.04 ЮВ 7-10
{10}
24 км 9/4 600 м
[Cu Sc Ac As Ci fib]
+2.6 -0.9 78 -4 -2 по сезону 1022.4 1019.4
06 22.04 ЮВ 6-8
{11}
27 км 9/6 600 м
[Sc Ci fib]
+1.7 -1.3 80 -4 -4 по сезону 1021.9 1018.9
09 22.04 ЮВ 4-6
{8}
28 км 9/4 600 м
[Sc Ac As]
+1.3 -2.1 78 -4 -4 по сезону 1021.6 1018.6 +3.1
12 22.04 ЮВ 4-7
{8}
4000 м 10/10 200 м
[St]
+1.1 -1.5 83 -4 -4 по сезону 1021.0 1018.0
15 22.04 ЮВ 4-6
{7}
4000 м дымка 10/10 200 м
[St]
+1.0 -0.5 90 -4 -4 по сезону 1019.8 1016.8
18 22.04 ЮВ 5-8
{8}
4000 м 10/10 300 м
[St]
+1.7 -1.9 77 -4 -4 по сезону 1018.8 1015.8
21 22.04 ЮВ 4-6
{8}
1300 м слаб. ливневой снег 10/10 100 м
[Cb cap]
+1.2 -0.3 90 -4 -4 по сезону 1018.3 1015.3 +0.9 0.4 0
00 23.04 ЮВ 4-5
{7}
1500 м слаб. ливневой снег 10/10 100 м
[Cb cap]
+0.8 -0.4 92 -5 -5 по сезону 1017.6 1014.6 +0.8
03 23.04 В 5-6
{7}
4600 м слаб. ливневой дождь 10/10 300 м
[Cb cap]
+1.0 -0.1 92 -5 -5 по сезону 1016.9 1013.9
06 23.04 СВ 1-3
{7}
1700 м слаб. ливневой снег 10/10 100 м
[Cb cap]
+0.7 -0.3 93 -1 -1 по сезону 1016.1 1013.1
09 23.04 штиль 0
{3}
1000 м ливневой снег 10/10 300 м
[Cb cap]
+0.1 -0.8 94 -1 -1 по сезону 1016.4 1013.4 +1.4 4
12 23.04 штиль 0 1000 м ливневой снег 10/10 300 м
[Cb cap]
+0.1 -0.8 94 -1 -1 по сезону 1016.5 1013.5
15 23.04 штиль 0 2000 м слаб. ливневой снег 10/10 300 м
[Cb cap]
+0.1 -0.7 94 -1 -1 по сезону 1016.2 1013.2
18 23.04 СЗ 6-8
{10}
4000 м слаб. ливневой дождь 10/10 600 м
[Cb cap]
+0.9 -1.0 87 -6 -6 по сезону 1017.1 1014.0
21 23.04 В 1-2
{9}
26 км {ливн. осадки} 8/0
[Ac As]
+1.5 -1.0 83 -0 +2 по сезону 1017.2 1014.2 0.0 5 4
00 24.04 С 5-8
{9}
8000 м осадки на расстоянии {ливн. осадки} 8/8 600 м
[Cb cap]
+2.8 -0.9 77 -2 -1 по сезону 1017.6 1014.6
03 24.04 С 4-8
{9}
35 км 3/3 1000 м
[Cu Sc]
+2.8 -1.6 73 -2 +4 по сезону 1017.3 1014.3
06 24.04 С 4-6
{8}
40 км 3/3 1000 м
[Cu Sc]
+2.6 -2.1 71 -2 0 по сезону 1017.4 1014.4
09 24.04 штиль 0
{7}
30 км 1/1 1000 м
[Sc]
-0.3 -3.9 77 -1 -1 по сезону 1017.7 1014.7 +4.7 0.0
12 24.04 Ю 3-4
{4}
4000 м 8/8 600 м
[Sc]
+0.6 -3.6 73 -4 -4 по сезону 1017.4 1014.4
15 24.04 ЮВ 2-5
{4}
4000 м 6/6 1000 м
[Sc]
0.0 -2.9 81 -4 -4 по сезону 1015.7 1012.7
18 24.04 ЮВ 4-6
{6}
4000 м слаб. ливневой снег 10/10 600 м
[Cb cap]
-0.2 -1.3 92 -6 -6 по сезону 1014.0 1011.0
21 24.04 ЮВ 3-7
{6}
1800 м снег {ливн. осадки} 10/10 300 м
[Frnb Ns]
-0.1 -1.0 94 -5 -5 по сезону 1011.6 1008.6 -0.8 2 4
00 25.04 Ю 5-8
{10}
1200 м сильн. снег {ливн. осадки} 10/10 300 м
[Frnb Ns]
+0.3 -0.5 94 -6 -6 прохладно 1008.8 1005.8
03 25.04 Ю 2-4
{9}
1000 м сильн. снег 10/10 300 м
[Frnb Ns]
+0.7 -0.1 94 -3 -3 по сезону 1004.9 1001.9
06 25.04 ЮЗ 1-2
{5}
5000 м слаб. снег 10/10 300 м
[Frnb Ns]
+0.5 -0.2 95 -2 -2 по сезону 999.3 996.4
09 25.04 штиль 0
{4}
7000 м слаб. дождь 10/10 300 м
[Frnb Ns]
+0.8 +0.1 95 -1 -1 по сезону 995.2 992.2 +1.2 35
12 25.04 Ю 1-2
{2}
500 м туман {снег, дождь} ?/? +0.5 -0.2 95 -2 -2 по сезону 993.6 990.6
15 25.04 ЮЗ 10-19
{20}
4000 м слаб. ливневой дождь {туман} 10/10 600 м
[Cb cap]
+2.1 -0.5 83 -5 -5 по сезону 992.6 989.6
18 25.04 ЮЗ 13-26
{28}
4000 м в посл. час ливневой снег {туман} 4/4 600 м
[Cb cap]
+1.2 -1.2 84 -7 -7 прохладно 993.1 990.2
21 25.04 Ю 4-6
{27}
22 км {ливн. осадки} 8/8 600 м
[Cb cap]
+2.0 -2.0 75 -3 -2 по сезону 1001.5 998.6 +0.4 2 12
00 26.04 З 3-6
{13}
16 км слаб. ливневой снег 9/9 600 м
[Cb cap]
+2.0 -3.0 69 -2 -1 по сезону 1006.0 1003.0
03 26.04 Ю 5-7
{12}
15 км слаб. ливневой снег 9/9 600 м
[Cb cap]
+1.0 -4.1 69 -5 -4 прохладно 1007.5 1004.5

 

Местоположение метеостанции Северо-Курильск (Сахалинская область, Россия): широта 50.68 долгота 156.10 высота над уровнем моря 23 м.

В архиве по умолчанию представлена погода в Северо-Курильске за последнюю неделю. Архивные данные за месяц целиком и за предыдущие месяцы, начиная с января 2011 года, Вы можете получить, выбрав интересующий диапазон дат из раскрывающегося списка и нажав кнопку "Ввод!".


*Определитесь, кто Вы:
робот инопланетянин человек

Внимание! Время в таблицах - всемирное. Для получения местного времени необходимо прибавить поправку, которая равна 12 ч.

Смотрите также архив погоды в соседних городах и на ближайших метеорологических станциях:

Погода на Мысе Лопатка (Камчатский край, Россия) (41 км)
Погода в Озерной (Камчатский край, Россия) (91 км)
Погода в Водопадной (Камчатский край, Россия) (183 км)
Погода в Большерецке (Камчатский край, Россия) (240 км)
Погода в Начиках (Камчатский край, Россия) (293 км)
Погода в Петропавловск-Камчатском (Камчатский край, Россия) (298 км)
Погода в Петропавловском Маяке (Камчатский край, Россия) (303 км)
Погода в Сосновке (Камчатский край, Россия) (307 км)
Погода в Петропавловск-Камч. 2 (Камчатский край, Россия) (314 км)
Погода в Соболево (Камчатский край, Россия) (403 км)

Пояснения к столбцам:

Ветер - указаны скорость ветра в м/с - средняя за 10 мин, порывы в срок и между сроками (в фигурных скобках) и направление, откуда дует ветер: С - северный, СВ - северо-восточный, В - восточный, ЮВ - юго-восточный, Ю - южный, ЮЗ - юго-западный, З - западный, СЗ - северо-западный.
Видимость - горизонтальная дальность видимости в метрах или километрах. При видимости от 1 до 10 км при отсутствии осадков обычно наблюдается дымка, при ухудшении видимости до 1 км и менее - туман. В сухую погоду видимость может ухудшаться дымом, пылью или мглою.
Явления - указаны атмосферные явления, наблюдавшиеся в срок или в последний час перед сроком; фигурными скобками обозначены явления, наблюдавшиеся между сроками (за 1-3 часа до срока); квадратными скобками обозначены град или гололедные отложения с указанием их диаметра в мм.
Облачность - указаны через наклонную черту общая и нижняя облачность в баллах и высота нижней границы облаков в метрах; квадратными скобками обозначены формы облаков: Ci - перистые, Cs - перисто-слоистые, Cc - перисто-кучевые, Ac - высококучевые, As - высокослоистые, Sc - слоисто-кучевые, Ns - слоисто-дождевые, Cu - кучевые, Cb - кучево-дождевые. Подробнее классификацию облаков см. в Атласе облаков (PDF).
T - Температура воздуха - температура, измеренная на высоте 2 м над землей.
Td - Температура точки росы - температура, при понижении до которой содержащийся в воздухе водяной пар достигнет насыщения.
f - Относительная влажность воздуха - влажноcть воздуха, измеренная на высоте 2 м над землей.
Te - Эффективная температура - температура, которую ощущает одетый по сезону человек в тени. Характеристика душности погоды. При расчете учитывается влияние влажности воздуха и скорости ветра на теплоощущения человека.
Tes - Эффективная температура на солнце - температура, которую ощущает человек, с поправкой на солнечный нагрев. Характеристика знойности погоды. Зависит от высоты солнца над горизонтом, облачности и скорости ветра. Ночью, в пасмурную погоду, а также при ветре 12 м/с и более поправка равна нулю.
P - Атмосферное давление - приведенное к уровню моря атмосферное давление.
Po - Атмосферное давление - измеренное на уровне метеостанции атмосферное давление.
Tmin - Минимальная температура - минимум температуры воздуха на высоте 2 м над землей.
Tmax - Максимальная температура - максимум температуры воздуха на высоте 2 м над землей.
R - Количество осадков - Количество выпавших осадков за период времени, мм. При наведении курсора мыши на число - период времени, за который выпало указанное количество осадков.
R24 - Количество осадков - Количество выпавших осадков за 24 часа, мм.
S - Снежный покров - Высота снежного покрова, см. При наведении курсора мыши на число - состояние снежного покрова и степень покрытия местности в баллах.